星链-32536 (STARLINK-32536)

导读

STARLINK-32536是美国SpaceX公司星链(Starlink)星座的组网卫星,于2024年11月11日发射升空,属于星链二代GEN2系统的组网卫星,部署在近地轨道。星链星座旨在为全球提供宽带互联网接入服务,该卫星采用平板设计,搭载氪工质霍尔推进器,具备自主避撞能力,寿命结束后会主动离轨再入大气层烧毁,服务年限约5-7年,助力星链全球覆盖组网推进。

Basic Information
目录编号:
61925
目录名称:
STARLINK-32536
国际标识:
2024-207P
轨道中心:
EARTH
卫星名称:
星链-32536
卫星全名:
星链-32536 (STARLINK-32536)
卫星状态:
在轨 (已飞行662 天)
发射日期:
2024-11-11 UTC
国别 :
美国 (US)
星等 :
--
Orbit Information
数据来源 国际轨道数据
星历时间: 2026-09-03T23:42:48+0800
17小时前
查看轨道信息
半长轴: 6861.168km
偏心率: 0.000194
轨道倾角: 43.003°
近地点辐角 269.704°
升交点赤经 0.651°
平近点角 90.359°
近地点: 481.699km
远地点: 484.363km
周期: 94.266分钟
每日圈数: 15.275863
Detailed Information
固有亮度:
5
最大亮度:
2.5
卫星平台:
Starlink V1.0
覆盖范围:
全球
运营商:
太空探索技术公司
运营商所在国:
美国
制造商(研发单位):
太空探索技术公司
制造商所在国:
美国
使用方式:
暂无
Satellite Introduction
Starlink 计划是 SpaceX 推出的全球卫星互联网项目,通过发射低轨道卫星,为全球尤其是偏远地区提供高速、低延迟的互联网服务。自 2019 年起,Starlink 已部署数千颗卫星,旨在缩小全球数字鸿沟,推动互联网普及。该项目还为军事、航空等行业提供通信支持,带来广泛经济效益。
2D Orbit Map
3D Orbit Map
Orbit Altitude Analysis Chart
Orbit Inclination Analysis Chart
Orbit Comprehensive Analysis Chart
View Comprehensive Chart
Conjunction Data List
Event ID Objects TCA Miss Dist (km) Collision Risk Probability Collision Risk Index (CRI) Action
CDM_260905-014406-184506-192521
2026-09-05T
01:44:39+0000
0.182 km
中距离
6.222088E-4 高风险 0.91
CDM_260906-145305-724706-192521
2026-09-06T
14:53:12+0000
0.510 km
远距离
1.316855E-4 高风险 0.77
CDM_260905-084806-184506-192521
2026-09-05T
08:48:20+0000
0.718 km
远距离
3.887357E-5 中风险 0.67
CDM_260904-111305-690506-192522
2026-09-04T
11:13:27+0000
1.079 km
极远距离
1.572758E-5 中风险 0.59
CDM_260906-131905-724706-192521
2026-09-06T
13:19:03+0000
1.105 km
极远距离
1.199782E-5 中风险 0.57
CDM_260904-093905-690506-192522
2026-09-04T
09:39:17+0000
1.540 km
极远距离
4.701004E-6 低风险 0.48
CDM_260905-102206-184506-192521
2026-09-05T
10:22:29+0000
1.399 km
极远距离
4.116196E-6 低风险 0.47
CDM_260905-082405-690506-192521
2026-09-05T
08:24:31+0000
1.633 km
极远距离
3.913609E-6 低风险 0.47
CDM_260905-031806-184506-192521
2026-09-05T
03:18:48+0000
1.844 km
极远距离
1.818378E-6 低风险 0.4
CDM_260904-124705-690506-192522
2026-09-04T
12:47:36+0000
2.258 km
极远距离
1.683543E-6 低风险 0.4